Location: Larkspur
(54.4391°N, 113.7691°W)
Time: 13:24:15
(UTC+00:00)

MOZHAYETS 4 - Pass Details

Date: 01 December 2023
Orbit: 654 x 672 km, 98.3° (Epoch: 28 February)

Event Time Altitude Azimuth Distance (km) Brightness Sun altitude
Rises 01:14:06 0° 8° (N) 3,032 10.9 -16.2°
Reaches altitude 10° 01:16:43 10° 353° (N) 2,116 10.2 -16.5°
Maximum altitude 01:20:14 22° 304° (WNW) 1,466 10.0 -17.0°
Drops below altitude 10° 01:23:45 10° 254° (WSW) 2,111 11.6 -17.5°
Sets 01:26:23 0° 239° (WSW) 3,022 12.5 -17.9°
